Date,TemperatureHighF,TemperatureAvgF,TemperatureLowF,DewpointHighF,DewpointAvgF,DewpointLowF,HumidityHigh,HumidityAvg,HumidityLow,PressureMaxIn,PressureMinIn,WindSpeedMaxMPH,WindSpeedAvgMPH,GustSpeedMaxMPH,PrecipitationSumIn
2013-1-1,34.7,28.5,16.0,29.7,22.1,8.2,90,77,61,29.92,29.92,6,1,8,0.05
2013-1-2,28.6,15.9,6.1,17.8,7.3,-0.9,76,69,52,29.92,29.92,6,1,6,0.04
2013-1-3,34.9,20.3,3.2,19.9,9.7,-4.9,75,64,43,29.92,29.92,14,3,14,0.08
2013-1-4,36.3,29.2,23.4,21.4,17.6,13.0,72,62,50,29.92,29.92,14,6,21,0.01
2013-1-5,42.6,28.7,10.4,28.0,18.6,3.5,77,66,54,29.92,29.92,8,2,10,0.01
2013-1-6,38.3,34.3,27.3,30.9,25.8,19.4,82,71,64,29.92,29.92,15,6,15,0.01
2013-1-7,39.4,32.7,27.7,29.7,23.3,18.8,86,69,52,29.92,29.92,8,3,12,0.02
2013-1-8,48.9,35.0,18.1,33.1,27.8,12.2,90,76,53,29.92,29.92,6,1,8,0.01
2013-1-9,51.3,39.1,27.0,40.8,32.3,21.0,86,77,64,29.92,29.92,12,3,12,0.08
2013-1-10,41.0,33.5,23.7,32.7,27.3,19.6,89,78,69,29.92,29.92,10,3,12,0.00
2013-1-11,62.2,50.6,41.0,54.4,44.4,31.6,95,80,66,29.92,29.92,17,5,20,0.27
2013-1-12,66.2,58.7,40.6,60.8,55.1,39.6,97,88,72,29.92,29.92,13,4,13,0.01
2013-1-13,65.5,59.5,40.3,61.1,54.9,38.1,94,85,73,29.92,29.92,25,7,26,0.59
2013-1-14,40.1,30.9,24.8,38.0,23.8,18.2,92,75,62,29.92,29.92,11,4,13,0.00
2013-1-15,34.9,28.8,21.4,24.5,20.7,16.4,83,72,62,29.92,29.92,7,1,9,0.00
2013-1-16,36.1,32.9,31.3,27.6,24.9,22.3,84,72,65,29.92,29.92,12,4,13,0.00
2013-1-17,39.2,33.6,26.8,29.4,25.7,14.0,82,72,58,29.92,29.92,11,3,14,0.00
2013-1-18,36.3,27.5,14.4,21.0,13.7,4.9,76,56,43,29.92,29.92,15,5,15,0.00
2013-1-19,55.4,44.8,35.4,27.3,22.5,18.3,53,42,24,29.92,29.92,24,11,29,0.24
2013-1-20,45.0,34.4,23.9,31.4,15.5,6.7,63,46,32,29.92,29.92,21,9,22,0.01
2013-1-21,25.3,20.3,10.6,14.4,4.5,-7.2,68,50,37,29.92,29.92,17,8,18,0.00
2013-1-22,18.9,10.9,6.3,-6.1,-10.3,-13.0,45,37,25,29.92,29.92,12,6,17,0.00
2013-1-23,21.2,15.3,8.2,9.1,-2.3,-9.2,69,46,29,29.92,29.92,15,4,16,0.00
2013-1-24,26.1,17.7,12.0,9.1,4.5,0.4,70,56,42,29.92,29.92,14,3,14,0.00
2013-1-25,24.3,19.1,15.6,16.5,7.6,0.4,76,61,46,29.92,29.92,11,4,12,0.00
2013-1-26,30.6,25.8,13.8,20.6,15.6,3.0,75,65,52,29.92,29.92,8,4,10,0.00
2013-1-27,36.9,23.6,6.8,27.1,11.9,-2.4,82,61,47,29.92,29.92,11,3,12,0.12
2013-1-28,50.9,42.8,32.0,48.1,39.9,27.4,95,89,83,29.92,29.92,13,4,17,0.27
2013-1-29,71.2,63.7,55.0,55.3,52.7,50.0,84,68,55,29.92,29.92,18,8,18,0.00
2013-1-30,66.7,56.9,34.0,55.9,49.1,27.3,90,76,64,29.92,29.92,23,10,27,0.51
2013-1-31,34.9,26.9,20.1,27.1,16.1,8.3,78,64,48,29.92,29.92,22,10,27,0.07
2013-2-1,19.4,12.9,7.5,10.6,-1.5,-6.3,68,52,43,29.92,29.92,18,6,19,0.00
2013-2-2,26.8,20.2,5.9,21.2,11.4,-4.6,79,68,56,29.92,29.92,12,4,12,0.00
2013-2-3,26.2,22.7,20.3,20.0,14.0,7.2,79,69,54,29.92,29.92,11,4,15,0.00
2013-2-4,29.7,19.2,9.5,18.9,9.2,0.8,75,65,51,29.92,29.92,12,2,13,0.00
2013-2-5,32.7,30.1,27.9,26.3,22.7,20.6,85,74,65,29.92,29.92,9,2,11,0.04
2013-2-6,42.3,31.4,19.2,26.9,20.5,9.8,77,64,43,29.92,29.92,8,2,9,0.12
2013-2-7,51.8,36.8,22.5,33.5,25.2,14.1,75,63,45,29.92,29.92,12,4,12,0.00
2013-2-8,46.6,35.7,26.8,38.5,27.0,14.4,87,70,59,29.92,29.92,15,8,21,0.15
2013-2-9,39.7,28.5,16.9,21.3,15.3,8.9,76,58,43,29.92,29.92,10,2,13,0.00
2013-2-10,48.9,38.5,25.2,40.0,24.0,13.2,74,56,43,29.92,29.92,17,5,17,0.01
2013-2-11,55.4,47.7,39.4,46.6,34.7,24.1,86,62,37,29.92,29.92,28,10,34,1.56
2013-2-12,47.8,37.7,27.5,27.3,23.3,19.4,73,57,42,29.92,29.92,21,5,22,0.00
2013-2-13,34.5,29.3,21.2,28.6,23.0,16.3,84,77,72,29.92,29.92,5,0,5,0.00
2013-2-14,46.4,34.7,18.0,36.6,28.8,12.0,88,79,68,29.92,29.92,13,4,18,0.17
2013-2-15,38.7,32.8,26.6,32.9,25.9,19.0,83,75,68,29.92,29.92,11,2,11,0.07
2013-2-16,32.0,23.8,14.4,22.3,13.9,4.9,79,66,48,29.92,29.92,15,4,17,0.02
2013-2-17,27.5,16.3,9.3,15.6,5.6,-0.1,75,62,45,29.92,29.92,9,3,10,0.00
2013-2-18,30.9,28.9,27.1,27.2,22.8,12.3,88,78,51,29.92,29.92,11,2,11,0.00
2013-2-19,40.8,29.9,21.9,33.5,20.0,9.0,85,66,52,29.92,29.92,17,3,20,0.12
2013-2-20,24.3,21.2,17.4,12.2,7.4,3.0,65,55,44,29.92,29.92,17,7,17,0.00
2013-2-21,31.3,24.6,20.8,17.0,12.2,8.6,67,59,52,29.92,29.92,11,4,11,0.00
2013-2-22,43.3,34.6,26.1,39.4,28.5,13.7,91,78,59,30.26,29.92,13,4,16,0.01
2013-2-23,44.6,36.6,27.9,32.1,26.7,18.5,82,68,47,30.26,30.26,13,2,14,0.00
2013-2-24,33.8,28.9,25.5,22.1,18.9,16.9,72,66,52,30.26,30.26,11,4,12,0.00
2013-2-25,49.3,40.5,33.1,27.2,21.9,18.2,56,48,37,30.26,30.26,10,3,11,0.00
2013-2-26,44.4,38.3,34.2,42.1,30.8,19.6,93,76,52,30.26,30.26,14,6,16,0.52
2013-2-27,44.4,38.5,33.3,40.8,34.0,28.4,89,84,76,30.26,30.26,15,8,103,0.27
2013-2-28,37.4,34.3,31.8,32.4,29.6,27.3,86,83,76,30.26,30.26,15,3,15,0.08
2013-3-1,34.3,31.9,27.7,29.3,23.6,16.0,84,71,61,30.26,30.26,8,1,9,0.00
2013-3-2,32.0,27.7,25.9,22.6,18.5,15.5,75,68,60,30.26,30.26,10,2,11,0.00
2013-3-3,31.8,26.4,21.9,17.8,14.8,10.9,74,62,47,30.26,30.26,9,3,11,0.00
2013-3-4,43.5,28.9,14.0,20.5,14.2,7.0,79,57,30,30.26,30.08,10,2,11,0.00
2013-3-5,42.4,35.7,30.9,28.8,24.6,19.0,84,64,50,30.08,29.57,12,4,14,0.08
2013-3-6,46.2,35.8,32.9,35.1,29.5,25.6,86,78,63,29.57,29.57,10,2,11,0.81
2013-3-7,43.2,36.3,31.8,30.9,26.2,24.1,76,67,53,29.57,29.57,11,4,11,0.00
2013-3-8,50.0,36.7,26.1,29.0,24.2,18.8,78,62,40,29.57,29.57,6,2,9,0.00
2013-3-9,60.4,42.4,25.0,33.1,26.9,18.2,81,57,30,29.57,29.57,13,3,14,0.00
2013-3-10,72.9,58.9,47.5,37.9,32.0,28.1,50,37,21,29.57,29.57,13,4,14,0.00
2013-3-11,63.3,53.9,42.6,52.8,43.1,34.5,97,69,34,29.57,29.57,23,7,24,0.48
2013-3-12,42.4,37.4,34.3,38.0,31.8,28.7,90,80,65,29.57,29.57,14,6,15,0.01
2013-3-13,34.9,31.3,28.0,32.2,24.2,15.6,96,76,53,29.57,29.57,21,4,21,0.01
2013-3-14,44.6,32.6,20.7,21.9,17.3,13.2,76,55,33,29.57,29.57,14,4,14,0.00
2013-3-15,52.3,38.7,24.3,41.7,30.2,17.5,94,72,56,29.57,29.57,11,3,13,0.09
2013-3-16,59.0,44.0,32.7,51.1,40.6,29.0,99,88,71,29.57,29.57,14,5,18,0.12
2013-3-17,41.2,34.9,32.2,29.7,27.3,24.9,86,74,59,29.57,29.57,9,3,11,0.00
2013-3-18,51.1,41.3,32.2,50.8,39.6,25.7,99,94,73,29.57,29.57,14,5,19,0.89
2013-3-19,42.4,36.6,31.5,37.7,22.0,11.7,84,57,32,29.57,29.57,27,10,27,0.09
2013-3-20,39.9,32.1,23.5,20.7,14.4,7.3,65,48,31,29.57,29.57,19,7,21,0.00
2013-3-21,33.1,25.3,18.3,18.3,11.9,6.4,71,57,41,29.57,29.57,13,5,13,0.00
2013-3-22,45.5,26.8,19.6,18.4,13.7,11.4,72,59,27,29.57,29.57,12,2,12,0.00
2013-3-23,52.0,35.1,20.1,28.2,20.2,15.1,84,59,27,29.57,29.57,11,2,11,0.00
2013-3-24,37.2,33.5,30.9,30.6,25.0,19.9,91,71,50,29.57,29.57,12,5,15,0.02
2013-3-25,36.1,33.6,32.2,32.8,31.3,30.0,97,91,83,29.57,29.57,11,2,11,0.33
2013-3-26,43.5,36.7,32.5,34.8,28.8,21.5,93,74,47,29.57,29.57,12,5,14,0.17
2013-3-27,44.4,38.2,33.4,32.0,25.8,19.9,81,62,39,29.57,29.57,15,7,15,0.00
2013-3-28,52.9,39.1,27.9,28.0,23.7,18.0,75,55,34,29.57,29.57,11,4,15,0.00
2013-3-29,57.2,39.0,23.9,33.3,25.8,19.2,89,62,34,29.57,29.57,11,2,14,0.00
2013-3-30,59.7,43.3,23.7,36.0,25.9,20.2,92,56,25,29.57,29.57,10,2,11,0.00
2013-3-31,56.3,46.4,38.7,48.6,40.7,30.1,97,81,60,29.57,29.57,12,3,16,0.08
2013-4-1,48.2,41.6,32.4,41.2,24.6,12.9,84,54,29,29.57,29.57,15,6,17,0.00
2013-4-2,47.1,34.1,18.7,19.4,13.3,8.7,73,44,24,29.57,29.57,12,4,14,0.00
2013-4-3,50.2,35.3,18.0,20.1,13.1,9.0,77,43,23,29.57,29.57,13,3,14,0.00
2013-4-4,55.4,39.7,26.6,24.0,15.6,10.7,55,40,21,29.57,29.57,8,3,10,0.00
2013-4-5,62.1,51.2,25.5,33.2,26.1,20.8,85,40,23,29.57,29.57,13,4,14,0.00
2013-4-6,64.6,46.3,30.2,22.7,19.6,14.8,63,38,18,29.57,29.57,11,5,13,0.00
2013-4-7,74.7,63.9,55.4,48.9,39.7,20.2,69,42,25,29.57,29.57,24,8,25,0.06
2013-4-8,73.9,63.3,48.0,54.7,51.1,46.9,97,67,43,29.57,29.57,20,6,22,0.06
2013-4-9,83.1,67.9,51.1,59.6,54.6,50.0,99,66,38,29.57,29.57,22,5,24,0.02
2013-4-10,84.2,72.0,59.2,64.9,60.1,56.5,95,68,49,29.87,29.57,25,8,25,0.13
2013-4-11,72.0,63.1,50.0,65.5,60.0,14.6,99,90,24,29.92,29.87,11,3,14,1.09
2013-4-12,60.4,49.7,42.4,60.2,45.0,34.2,99,84,66,29.92,29.92,17,6,24,0.25
2013-4-13,55.9,45.8,35.2,39.2,36.0,31.7,87,69,49,29.92,29.92,18,6,18,0.00
2013-4-14,61.7,43.8,33.1,42.9,28.9,9.8,96,62,24,29.92,29.92,11,4,11,1.00
2013-4-15,71.8,61.8,45.7,55.2,49.2,39.2,87,64,52,29.92,29.92,17,5,17,0.00
2013-4-16,81.1,64.8,56.1,65.6,57.7,48.1,99,79,53,29.92,29.92,17,5,17,1.16
2013-4-17,70.0,60.7,54.7,63.9,58.3,53.9,99,92,77,29.92,29.92,13,4,13,0.06
2013-4-18,88.0,73.6,58.6,64.9,58.7,53.9,99,64,33,29.92,29.92,21,8,24,0.00
2013-4-19,75.9,54.6,41.0,61.7,43.9,31.8,96,69,48,29.92,29.92,25,10,25,0.39
2013-4-20,50.4,41.2,31.8,33.6,29.1,24.0,92,64,39,29.92,29.92,17,6,19,0.02
2013-4-21,57.7,40.9,27.1,32.7,26.8,21.6,90,61,27,29.92,29.92,12,2,17,0.00
2013-4-22,71.8,55.5,37.2,44.1,35.9,25.0,66,49,31,29.92,29.92,8,2,11,0.00
2013-4-23,73.8,60.4,42.1,48.2,40.0,31.3,67,48,32,29.92,29.92,13,4,14,0.00
2013-4-24,64.9,53.4,34.2,57.8,46.1,32.4,99,78,53,29.92,29.92,17,6,25,0.61
2013-4-25,57.9,43.5,29.3,42.1,33.9,27.2,99,73,45,29.92,29.92,14,4,21,0.01
2013-4-26,65.1,47.2,28.9,39.7,33.5,27.6,97,64,28,29.92,29.92,11,2,11,0.00
2013-4-27,74.5,56.5,35.8,46.6,38.4,30.8,97,58,22,29.92,29.92,11,3,12,0.00
2013-4-28,65.3,58.6,54.1,60.8,55.3,46.2,99,89,64,29.92,29.92,12,4,12,0.54
2013-4-29,67.3,60.0,52.2,60.6,57.2,51.6,99,91,73,29.92,29.92,7,3,8,0.04
2013-4-30,79.0,62.4,45.5,60.8,54.0,44.7,99,77,46,29.92,29.92,9,2,11,0.00
2013-5-1,84.2,68.5,54.3,63.5,56.8,52.1,96,69,41,29.92,29.92,12,3,14,0.00
2013-5-2,78.4,66.7,53.6,58.4,54.3,49.2,90,66,48,29.92,29.92,12,3,13,0.00
2013-5-3,79.9,66.8,53.6,56.7,48.1,31.9,92,57,18,29.92,29.92,17,5,18,0.00
2013-5-4,73.4,63.6,54.9,50.2,45.1,41.0,67,52,41,29.92,29.92,14,5,20,0.00
2013-5-5,76.3,63.7,51.8,46.2,42.3,33.4,75,48,31,29.92,29.92,12,4,14,0.00
2013-5-6,70.7,61.5,56.5,59.6,51.7,36.3,99,72,39,29.92,29.92,9,2,9,0.11
2013-5-7,74.1,62.8,54.5,62.5,57.6,53.3,98,84,60,29.92,29.92,7,2,9,0.08
2013-5-8,76.5,63.9,53.8,59.3,55.6,53.0,99,77,46,29.92,29.92,9,2,9,0.00
2013-5-9,83.5,66.1,49.6,62.4,55.0,49.4,99,72,33,29.92,29.92,9,2,10,0.01
2013-5-10,76.1,65.1,59.5,64.8,61.2,57.1,99,88,66,29.92,29.92,21,4,24,0.85
2013-5-11,62.1,55.3,46.2,61.5,52.0,40.9,99,89,74,29.92,29.92,12,4,14,0.04
2013-5-12,55.4,46.2,34.5,42.4,34.1,29.5,99,66,39,29.92,29.92,19,5,21,0.00
2013-5-13,59.9,46.8,35.1,40.7,32.8,26.4,99,63,30,29.92,29.92,11,2,12,0.00
2013-5-14,77.7,67.4,36.7,57.2,48.2,32.9,89,52,34,30.19,29.92,14,5,14,0.00
2013-5-15,89.2,77.3,66.6,62.3,59.1,56.0,76,55,36,30.19,30.19,21,8,23,0.06
2013-5-16,78.8,69.8,62.8,67.0,62.6,55.8,98,79,52,30.19,30.19,10,2,14,0.15
2013-5-17,82.8,69.7,59.5,69.5,62.6,56.9,99,81,43,30.19,30.19,8,2,10,0.00
2013-5-18,82.9,69.8,59.7,67.7,61.9,57.5,97,77,56,30.19,30.19,9,2,9,0.01
2013-5-19,83.3,71.7,61.2,69.5,65.0,59.9,98,80,57,30.19,30.19,8,2,11,0.00
2013-5-20,88.5,75.2,63.0,74.4,67.8,62.1,99,80,50,30.19,30.19,12,3,14,0.00
2013-5-21,89.1,77.1,67.3,71.9,66.9,62.4,99,73,42,30.19,30.19,18,4,21,0.12
2013-5-22,81.3,73.9,65.1,66.7,63.3,60.8,96,70,52,30.19,30.19,16,5,20,0.19
2013-5-23,76.3,66.1,50.0,65.1,60.2,45.7,99,83,50,30.19,30.19,16,6,19,0.02
2013-5-24,60.4,51.2,42.6,45.8,40.0,37.4,86,68,44,30.19,30.19,14,5,16,0.00
2013-5-25,66.6,53.2,34.7,46.8,40.9,33.7,99,66,40,30.19,30.19,11,2,11,0.00
2013-5-26,73.4,54.8,38.1,49.5,37.7,28.7,99,60,20,30.19,30.19,7,1,8,0.00
2013-5-27,72.0,59.1,46.4,53.9,47.3,39.1,88,66,44,30.19,30.19,16,4,17,0.06
2013-5-28,86.4,75.3,61.9,65.4,60.8,54.1,86,62,43,30.19,30.19,19,6,21,0.00
2013-5-29,90.3,79.2,70.3,63.7,60.7,56.5,71,54,34,30.19,30.19,16,5,19,0.00
2013-5-30,90.9,78.2,63.0,67.8,63.6,60.9,98,64,40,30.19,30.19,13,3,14,0.00
2013-5-31,90.0,75.8,63.5,71.0,64.3,60.1,99,70,43,30.19,30.19,16,4,21,0.39
2013-6-1,86.0,76.2,66.0,70.5,67.6,65.8,99,76,52,30.19,30.19,18,6,22,0.14
2013-6-2,80.2,72.3,66.6,70.2,63.2,58.9,98,75,49,30.19,30.19,12,5,19,0.58
2013-6-3,70.7,63.7,53.4,60.9,55.7,48.8,90,76,55,30.19,30.19,7,3,11,0.00
2013-6-4,77.4,62.0,43.0,53.3,47.6,39.8,94,62,40,30.19,30.19,9,2,11,0.00
2013-6-5,85.3,69.7,54.5,63.0,54.5,46.5,79,60,42,30.19,30.19,8,2,10,0.00
2013-6-6,74.3,68.4,62.1,69.2,66.1,60.5,99,92,77,30.19,30.19,7,2,10,0.45
2013-6-7,73.8,63.4,57.0,60.8,57.7,54.2,99,83,62,30.19,30.19,8,3,8,0.00
2013-6-8,78.4,65.7,53.2,60.7,56.3,52.7,99,74,46,30.19,30.19,7,1,7,0.00
2013-6-9,85.6,74.2,64.8,67.4,62.8,59.8,86,70,44,30.19,30.19,10,3,10,0.01
2013-6-10,79.9,70.1,65.3,69.0,66.5,63.7,99,89,59,30.19,30.19,12,4,12,0.48
2013-6-11,86.7,73.6,62.6,67.4,64.8,61.7,99,77,47,30.19,30.19,10,4,11,0.00
2013-6-12,89.6,77.7,66.2,75.2,70.0,64.2,97,79,58,30.19,30.19,11,2,14,0.01
2013-6-13,82.4,71.0,61.7,73.4,64.0,54.9,99,81,48,30.19,30.19,15,4,24,0.89
2013-6-14,80.1,68.2,55.4,61.2,57.7,54.9,99,72,46,30.19,30.03,12,2,12,2.62
2013-6-15,81.5,68.6,52.2,64.1,58.1,51.6,99,73,44,30.03,30.03,8,2,8,0.00
2013-6-16,79.7,72.9,67.6,69.7,65.7,61.4,91,78,65,30.03,30.03,15,4,15,0.06
2013-6-17,86.9,74.9,65.3,71.5,68.1,64.3,99,81,48,30.03,30.03,14,2,14,0.00
2013-6-18,83.3,71.9,61.2,72.4,66.4,56.6,99,84,58,30.03,30.03,18,2,19,0.69
2013-6-19,81.3,67.2,52.7,59.7,54.2,47.2,99,68,31,30.03,30.03,7,2,8,0.00
2013-7-5,82.0,75.7,70.3,72.2,70.0,68.6,97,83,70,30.14,30.08,9,2,11,2.21
2013-7-6,86.2,75.1,69.4,74.5,70.5,66.7,99,87,63,30.15,30.02,16,3,18,0.00
2013-7-7,83.7,74.0,67.1,70.3,66.3,61.0,96,78,56,30.11,30.01,9,3,11,0.00
2013-7-8,82.6,72.0,63.9,76.2,68.5,62.8,99,89,72,30.13,30.04,8,2,10,0.93
2013-7-9,90.0,77.0,70.3,78.5,72.7,69.8,98,87,63,30.08,29.97,13,4,13,0.70
2013-7-10,91.4,76.4,65.8,78.2,71.6,65.5,99,86,61,29.99,29.82,27,4,30,0.13
2013-7-11,80.6,70.8,59.2,70.6,64.7,56.2,99,83,55,30.02,29.93,8,2,8,0.01
2013-7-12,81.9,69.5,56.3,65.9,61.0,55.8,99,77,51,30.09,30.02,9,2,10,0.00
2013-7-13,86.4,74.4,61.9,70.9,66.2,60.9,97,77,53,30.17,30.07,9,2,14,0.00
2013-7-14,92.1,79.8,68.9,75.1,71.1,67.0,94,76,54,30.25,30.16,14,3,14,0.00
2013-7-15,93.9,82.6,71.4,74.3,72.0,68.9,93,72,47,30.32,30.24,7,2,8,0.00
2013-7-16,95.0,82.3,70.0,76.5,72.8,69.4,99,76,48,30.33,30.24,6,1,8,0.00
2013-7-17,95.7,83.2,71.1,77.8,73.5,70.5,99,75,47,30.31,30.16,8,1,8,0.00
2013-7-18,96.1,83.3,71.4,77.6,73.2,70.4,99,75,44,30.20,30.03,8,2,10,0.00
2013-7-19,93.6,81.1,72.0,78.4,73.7,66.9,99,80,48,30.04,29.90,11,3,14,0.01
2013-7-20,80.8,75.7,70.7,76.9,72.2,68.9,96,89,75,29.93,29.85,8,2,12,0.45
2013-7-21,82.4,71.8,68.5,75.5,70.3,68.3,99,95,76,29.97,29.90,4,0,5,0.00
2013-7-23,85.8,76.9,70.9,76.3,71.5,68.5,93,84,69,29.77,29.66,11,3,13,2.11
2013-7-24,78.6,70.2,60.3,68.8,61.6,54.9,97,76,52,29.98,29.77,6,2,8,0.00
2013-7-25,81.0,66.4,52.5,59.1,55.3,52.0,98,71,43,30.06,29.97,11,2,11,0.00
2013-7-26,82.9,69.3,53.4,64.1,58.8,52.8,99,73,44,30.08,29.95,9,2,9,0.00
2013-7-27,75.9,68.4,64.6,68.5,65.1,61.6,98,89,72,29.95,29.81,11,3,11,0.31
2013-7-28,74.5,65.2,54.5,62.7,55.3,48.7,99,73,45,30.02,29.84,13,3,15,0.00
2013-7-29,79.2,64.8,52.7,59.3,55.7,52.2,99,76,44,30.17,30.01,13,2,13,0.00
2013-7-30,82.8,68.7,55.0,63.7,59.2,54.2,99,75,44,30.22,30.11,7,1,8,0.00
2013-7-31,76.1,69.7,66.0,68.0,65.5,63.4,97,87,74,30.11,29.93,10,2,11,0.01
2013-8-1,84.6,73.6,65.1,70.4,65.0,59.3,99,78,45,29.94,29.87,10,3,13,0.19
2013-8-2,81.1,69.8,57.0,65.8,60.7,56.8,99,76,46,30.00,29.92,9,2,12,0.01
2013-8-3,83.3,71.1,61.3,70.6,65.6,59.9,99,84,50,30.00,29.95,8,2,12,0.32
2013-8-4,79.7,67.7,57.6,62.6,58.3,54.7,99,75,45,30.11,30.00,9,2,14,0.00
2013-8-5,79.7,65.1,51.3,62.2,56.9,51.0,99,78,48,30.12,29.99,6,2,7,0.00
2013-8-6,84.0,72.8,62.6,65.3,61.5,59.0,89,70,48,30.00,29.93,9,3,11,0.00
2013-8-7,88.5,76.3,65.5,75.0,69.3,63.2,96,80,56,29.95,29.87,8,2,11,0.00
2013-8-8,87.3,75.3,70.0,76.6,72.4,69.4,99,91,67,29.97,29.89,8,2,12,0.73
2013-8-9,72.7,71.0,69.8,71.8,70.4,69.2,98,98,97,29.94,29.89,4,1,4,0.12
2013-8-10,85.1,79.4,66.7,67.9,66.4,63.9,95,66,50,30.11,30.04,10,2,11,0.10
2013-8-11,66.7,66.6,66.6,65.6,65.5,65.4,96,96,96,30.06,30.06,0,0,0,0.00
2013-8-17,84.0,75.6,60.8,65.7,61.0,57.2,88,62,46,29.92,29.88,8,2,10,0.07
2013-8-18,74.8,66.2,57.0,67.8,62.6,55.9,97,89,76,29.93,29.84,8,2,11,0.00
2013-8-19,85.1,71.6,60.3,69.9,63.8,60.0,99,80,47,29.87,29.80,6,1,8,0.00
2013-8-20,87.3,71.6,56.8,70.4,62.4,56.6,99,77,43,29.93,29.83,6,1,8,0.00
2013-8-21,87.6,71.6,60.8,71.7,65.6,60.2,99,83,55,29.91,29.80,7,2,9,0.00
2013-8-22,86.9,73.8,61.5,73.2,67.3,61.0,99,81,55,29.86,29.74,11,3,15,0.02
2013-8-23,86.9,75.5,66.2,70.2,67.0,58.8,99,77,47,29.88,29.76,8,2,8,0.52
2013-8-24,85.6,70.9,58.6,65.4,60.1,55.3,91,71,44,30.02,29.88,7,1,9,0.00
2013-8-25,86.9,71.2,56.3,67.2,61.3,56.0,99,75,41,30.08,29.96,8,2,11,0.00
2013-8-26,90.0,73.6,57.0,71.7,64.9,56.8,99,77,45,30.00,29.79,8,2,13,0.00
2013-8-27,87.4,77.0,69.1,75.6,71.7,67.3,95,84,66,29.80,29.68,9,2,9,0.00
2013-8-28,90.1,79.7,70.5,79.3,73.6,69.4,97,83,58,29.70,29.58,8,3,17,0.09
2013-8-29,87.4,75.0,67.1,74.1,70.2,66.8,99,86,58,29.79,29.69,7,1,8,0.00
2013-8-30,90.5,76.6,63.0,75.0,68.1,62.1,99,78,50,29.75,29.58,9,2,11,0.00
2013-8-31,87.4,76.3,67.5,74.7,70.8,66.5,98,84,59,29.60,29.51,14,3,14,0.25
2013-9-1,73.2,71.3,69.3,72.4,70.7,69.0,99,98,97,29.57,29.54,2,0,4,0.00
2013-9-3,71.6,64.2,53.4,56.9,54.7,52.5,97,72,57,30.08,29.92,11,2,11,0.01
2013-9-4,84.0,64.8,48.2,61.5,55.9,47.9,99,77,43,30.15,30.08,11,2,11,0.00
2013-9-5,83.8,67.4,55.0,66.8,57.5,48.5,99,74,39,30.22,30.11,9,2,11,0.00
2013-9-6,78.8,61.5,45.5,58.3,49.2,41.3,99,70,27,30.27,30.13,8,1,9,0.00
2013-9-7,87.1,67.6,47.7,65.2,57.8,47.4,99,74,45,30.13,29.96,8,2,9,0.00
2013-9-8,87.8,76.7,66.0,71.6,67.2,63.7,96,74,55,30.04,29.95,8,2,8,0.00
2013-9-9,91.2,76.5,62.2,72.6,66.6,60.6,96,74,46,30.07,29.99,11,3,16,0.00
2013-9-10,95.9,83.7,75.0,75.1,72.3,68.8,86,70,47,30.14,30.04,14,4,15,0.00
2013-9-11,91.0,79.6,72.3,75.6,72.6,67.4,95,80,52,30.17,30.02,13,2,17,0.00
2013-9-12,78.8,72.7,64.2,73.3,69.1,61.1,97,89,67,30.03,29.85,10,3,11,0.07
2013-9-13,67.3,60.1,49.6,61.7,51.6,46.8,95,75,55,30.08,29.90,11,4,14,0.00
2013-9-14,72.0,63.7,47.8,48.5,46.5,44.4,96,56,39,30.17,30.11,7,2,8,0.00
2013-9-15,77.2,59.7,42.1,60.4,51.3,41.8,99,77,43,30.16,30.04,10,2,10,0.00
2013-9-16,74.1,62.9,54.5,62.7,55.8,50.1,99,80,47,30.30,30.09,7,2,8,0.08
2013-9-17,76.8,60.0,48.2,56.2,51.7,47.8,99,77,44,30.34,30.20,11,2,11,0.00
2013-9-18,78.1,62.9,53.6,64.6,57.9,51.3,95,84,63,30.21,30.08,8,2,9,0.00
2013-9-19,75.0,67.6,62.4,70.6,66.1,61.3,99,95,84,30.12,30.01,8,2,8,0.00
2013-9-20,87.3,74.3,64.2,73.0,67.7,63.4,99,82,52,30.03,29.82,11,3,14,0.01
2013-9-21,76.1,66.5,51.8,68.8,61.5,51.0,99,86,49,29.86,29.70,11,3,11,0.71
2013-9-22,69.3,56.0,47.1,53.3,48.2,45.1,99,79,44,30.04,29.86,8,2,9,0.00
2013-9-23,67.6,57.5,44.4,54.4,46.7,43.4,97,70,49,30.14,30.03,12,2,12,0.00
2013-9-24,73.4,62.2,42.8,51.8,48.8,42.3,98,64,42,30.11,29.95,8,2,11,0.00
2013-9-25,74.3,57.4,44.6,57.3,50.6,43.8,99,81,49,29.97,29.88,6,1,8,0.00
2013-9-26,83.5,62.5,46.6,59.7,50.6,43.6,99,72,27,30.09,29.93,7,1,15,0.00
2013-9-27,81.3,62.1,43.5,57.9,51.5,43.0,99,72,38,30.19,30.09,8,1,8,0.00
2013-9-28,81.9,62.6,46.8,60.4,53.2,46.5,99,76,41,30.21,30.09,8,2,8,0.00
2013-9-29,77.9,62.8,52.0,64.3,57.3,51.4,99,84,57,30.10,30.00,8,2,8,0.00
2013-9-30,76.5,65.5,57.6,64.6,60.3,56.4,96,84,58,30.05,29.96,8,1,9,0.00
2013-10-1,82.6,65.3,52.0,65.2,57.9,51.4,99,80,43,30.11,30.01,11,2,12,0.00
2013-10-2,84.7,67.7,53.4,69.0,62.0,52.8,99,84,54,30.13,30.04,6,1,7,0.00
2013-10-3,81.7,70.7,63.9,70.4,66.6,62.4,99,88,62,30.10,30.03,10,2,11,0.00
2013-10-4,88.0,69.9,58.6,69.9,65.0,58.4,99,87,47,30.11,30.03,9,2,11,0.01
2013-10-5,84.2,72.7,63.3,74.0,68.2,62.5,99,87,60,30.08,29.97,11,2,12,0.00
2013-10-6,81.3,70.2,53.6,69.5,66.0,52.5,99,88,57,29.96,29.72,19,4,22,1.24
2013-10-7,64.2,53.6,45.5,52.7,46.8,42.7,98,80,48,30.16,29.81,14,4,15,0.43
2013-10-8,71.2,53.1,38.3,56.0,44.7,38.0,99,78,41,30.28,30.16,11,2,14,0.00
2013-10-9,75.2,57.5,42.6,52.6,45.9,42.1,99,70,33,30.28,30.18,9,2,11,0.00
2013-10-10,79.0,56.6,41.0,52.9,46.6,40.7,99,75,36,30.19,30.08,6,1,7,0.00
2013-10-11,81.7,60.9,42.4,57.6,50.2,42.2,99,73,33,30.11,30.03,7,1,8,0.00
2013-10-12,75.6,61.8,50.9,62.3,56.3,50.6,99,84,59,30.14,30.05,7,1,8,0.00
2013-10-13,75.0,63.6,56.3,64.0,59.5,53.1,98,87,66,30.29,30.14,11,2,11,0.00
2013-10-14,75.6,59.1,44.8,55.1,50.7,44.0,99,77,45,30.32,30.20,9,1,10,0.00
2013-10-15,71.2,59.2,46.2,63.7,56.3,45.4,99,91,75,30.21,29.95,7,2,8,0.00
2013-10-16,67.5,64.4,55.9,64.4,61.0,48.8,97,89,74,29.96,29.87,12,3,14,0.05
2013-10-17,56.8,49.2,39.7,53.1,46.1,39.5,99,89,74,29.96,29.83,8,2,11,0.25
2013-10-18,66.6,50.3,37.0,49.6,42.5,36.3,99,78,44,30.04,29.95,14,2,14,0.00
2013-10-19,50.2,45.7,41.2,49.0,44.2,39.4,99,94,82,29.98,29.80,11,2,16,0.15
2013-10-20,55.6,42.8,37.2,51.0,41.3,36.4,99,95,81,30.00,29.83,11,1,11,0.20
2013-10-21,66.4,52.0,37.8,48.4,43.9,37.5,99,77,44,30.04,29.84,11,3,11,0.00
2013-10-22,50.2,44.3,38.1,48.8,38.8,30.6,99,82,52,29.99,29.81,11,2,11,0.33
2013-10-23,47.7,40.4,35.6,42.0,37.1,33.0,99,88,59,30.00,29.77,12,3,13,0.46
2013-10-24,47.3,38.4,31.5,37.5,32.4,28.3,98,80,50,30.20,29.99,11,3,15,0.00
2013-10-25,52.3,38.3,26.1,35.8,29.2,23.6,95,72,42,30.38,30.20,11,3,14,0.00
2013-10-26,48.6,41.6,34.3,35.8,28.6,24.6,76,60,44,30.26,29.92,19,6,19,0.00
2013-10-27,58.3,40.6,27.5,40.7,31.6,25.2,99,74,39,30.11,30.02,11,1,11,0.00
2013-10-28,65.5,43.7,27.3,41.5,33.0,25.1,99,72,34,30.29,30.09,7,1,7,0.00
2013-10-29,61.3,47.6,31.6,45.0,38.6,30.4,99,73,45,30.36,30.22,5,1,5,0.00
2013-10-30,64.9,59.8,48.2,58.8,54.7,40.8,96,83,73,30.22,30.06,8,3,9,0.00
2013-11-17,62.2,59.7,52.5,60.8,54.8,40.5,98,85,54,29.92,29.57,29,11,29,3.41
2013-11-18,53.6,45.5,36.3,41.4,34.2,24.6,86,65,41,30.13,29.80,15,7,22,0.00
2013-11-19,46.0,35.7,25.5,29.8,24.9,21.6,86,65,48,30.34,30.12,9,2,11,0.00
2013-11-20,50.7,36.9,26.8,31.9,26.5,22.6,88,67,45,30.35,30.24,14,3,17,0.00
2013-11-21,58.1,47.7,38.3,45.2,37.5,28.2,89,68,53,30.33,30.19,9,2,11,0.07
2013-11-22,53.1,48.4,36.3,52.5,46.4,29.2,99,93,74,30.32,30.11,13,4,17,0.35
2013-11-23,38.8,31.6,20.8,29.5,25.0,5.8,91,77,48,30.44,30.24,12,3,12,0.00
2013-11-24,28.0,20.0,14.2,7.7,3.3,-4.5,73,50,25,30.58,30.44,10,4,10,0.00
2013-11-25,37.0,27.0,13.8,24.9,12.0,5.3,77,56,28,30.48,30.17,10,3,10,0.00
2013-11-26,34.5,32.2,30.4,32.4,30.1,25.6,96,92,75,30.17,29.85,3,0,3,0.06
2013-11-27,30.9,27.7,24.1,29.4,18.6,7.9,95,70,43,30.18,29.83,14,2,14,0.01
2013-11-28,31.1,26.1,17.1,20.7,16.2,9.9,83,66,54,30.38,30.19,6,3,6,0.00
2013-11-29,40.8,28.2,15.4,22.7,17.3,9.2,82,64,47,30.58,30.38,4,1,4,0.07
2013-11-30,46.0,31.4,23.9,28.6,22.1,16.5,82,69,49,30.50,30.15,7,2,7,0.00
2013-12-1,46.4,37.4,24.1,34.1,28.4,19.9,86,71,56,30.15,29.94,10,2,10,0.00
2013-12-2,50.5,39.7,32.2,39.5,34.8,28.2,93,83,64,29.93,29.80,4,1,5,0.04
2013-12-3,56.1,44.1,35.1,45.6,39.7,33.4,98,85,66,29.87,29.81,8,2,8,0.01
2013-12-4,63.1,54.7,42.6,53.0,48.1,39.9,93,79,66,29.91,29.76,10,4,13,0.01
2013-12-5,66.0,52.2,33.8,60.6,47.1,30.4,97,83,72,30.10,29.77,12,5,16,0.52
2013-12-6,33.6,30.4,26.6,30.7,27.5,22.4,92,89,84,30.32,30.07,5,0,7,0.19
2013-12-7,32.9,24.2,13.8,22.6,14.0,5.5,85,66,44,30.55,30.31,0,0,0,0.27
2013-12-21,68.9,62.5,0.0,62.8,59.6,8.1,96,89,72,29.74,29.50,21,7,30,1.98
2013-12-22,68.9,56.0,44.1,61.3,49.2,39.5,96,78,63,30.00,29.47,21,8,24,0.58
2013-12-23,43.7,33.7,27.7,39.7,24.4,14.1,92,69,56,30.32,29.99,10,5,13,0.07
2013-12-24,28.0,18.7,11.8,18.6,7.4,0.9,79,61,49,30.52,30.29,14,5,15,0.00
2013-12-25,32.7,24.4,11.7,22.3,11.0,3.2,71,58,34,30.49,30.15,12,4,13,0.00
2013-12-26,39.7,32.2,23.0,24.0,18.6,12.1,74,58,35,30.32,30.12,15,6,20,0.00
2013-12-27,46.9,35.7,25.5,28.3,23.6,18.1,76,62,47,30.38,30.25,11,3,13,0.00
2013-12-28,54.0,43.0,35.8,31.5,27.2,23.7,65,54,41,30.24,30.01,12,4,14,0.00
2013-12-29,42.3,39.1,34.0,40.9,33.8,25.1,96,82,51,30.02,29.75,14,3,17,0.34
2013-12-30,33.6,27.9,24.6,26.4,18.3,14.4,76,67,60,30.20,29.94,13,4,15,0.00
2013-12-31,29.8,24.4,19.6,16.2,13.0,9.1,76,62,47,30.30,30.09,15,5,17,0.01
2014-1-1,41.5,30.1,19.0,27.9,21.3,11.7,80,70,56,30.27,30.02,7,1,9,0.00
2014-1-2,30.9,22.9,10.8,24.7,16.1,2.0,85,75,65,30.13,29.75,16,4,20,0.00